Location: N�rnberg
(49.4489°N, 11.0797°E)
Time: 02:57:09
(UTC+01:00)

ISS - Pass Details

Date: 10 January 2018
Orbit: 402 x 407 km, 51.6° (Epoch: 23 January)

Event Time Altitude Azimuth Distance (km) Brightness Sun altitude
Exits shadow 04:58:09 14° 81° (E) 1,273 -0.5 -30.2°
Drops below altitude 10° 04:58:39 10° 83° (E) 1,469 -0.1 -30.1°
Sets 05:00:45 0° 87° (E) 2,330 1.2 -29.8°
